Westminster, MD

5:36 AM EST on November 22, 2019 (GMT -0500)
Carroll County Regional-Poage

Weather History for KDMW - September, 2019

Change the Weather History Date:

Tuesday, September 17, 2019

  Actual Average (WUND) Record (WUND)
Temperature  
Mean Temperature 71 °F -  
Max Temperature 80 °F - - (-1)
Min Temperature 62 °F - - (-1)
Cooling Degree Days 6    
Growing Degree Days 21 (Base 50)    
Moisture  
Dew Point 61 °F    
Average Humidity 71    
Maximum Humidity 94    
Minimum Humidity 37    
Precipitation  
Precipitation 0.03 in - - ()
Sea Level Pressure  
Sea Level Pressure 30.11 in    
Wind  
Wind Speed 3 mph (NE)    
Max Wind Speed 8 mph    
Max Gust Speed -    
Visibility 10 miles    
Events Rain    
Averages and records for this station are not official NWS values.
T = Trace of Precipitation, MM = Missing Value Source: NWS Daily Summary

Daily Weather History Graph

Daily Weather History Graph

Search for Another Location

Airport or City:

Astronomy

Sep. 17, 2019 Rise Set
Actual Time 6:50 AM EDT 7:13 PM EDT
Civil Twilight 6:23 AM EDT 7:40 PM EDT
Nautical Twilight 5:52 AM EDT 8:12 PM EDT
Astronomical Twilight 5:19 AM EDT 8:44 PM EDT
Moon 9:16 PM EDT (9/17) 9:52 AM EDT (9/17)
Length of Visible Light 13h 16m
Length of Day
12h 22m
Waning Gibbous, 89% of the Moon is Illuminated
Sep 17
Waning Gibbous
Sep 21
Last Quarter
Sep 28
New
Oct 5
First Quarter
Oct 13
Full

Hourly Weather History & Observations

Time (EDT) Temp. Heat Index Dew Point Humidity Pressure Visibility Wind Dir Wind Speed Gust Speed Precip Events Conditions
12:00 AM 71.6 °F - 66.2 °F 83% 30.05 in 10.0 mi Calm Calm - N/A   Overcast
12:20 AM 71.6 °F - 66.2 °F 83% 30.05 in 10.0 mi Calm Calm - N/A   Overcast
12:40 AM 71.6 °F - 66.2 °F 83% 30.06 in 10.0 mi North 4.6 mph - N/A Rain Light Rain
1:00 AM 71.6 °F - 66.2 °F 83% 30.06 in 7.0 mi Calm Calm - 0.01 in Rain Rain
1:20 AM 71.6 °F - 66.2 °F 83% 30.06 in 10.0 mi NE 3.5 mph - 0.01 in Rain Light Rain
1:40 AM 69.8 °F - 66.2 °F 88% 30.07 in 5.0 mi Calm Calm - 0.03 in Rain Rain
2:00 AM 69.8 °F - 66.2 °F 88% 30.06 in 10.0 mi Calm Calm - N/A   Mostly Cloudy
2:20 AM 69.8 °F - 66.2 °F 88% 30.06 in 10.0 mi NE 3.5 mph - N/A   Mostly Cloudy
2:40 AM 69.8 °F - 66.2 °F 88% 30.06 in 10.0 mi NE 4.6 mph - N/A   Scattered Clouds
3:00 AM 69.8 °F - 66.2 °F 88% 30.05 in 10.0 mi NE 3.5 mph - N/A   Mostly Cloudy
3:20 AM 69.8 °F - 66.2 °F 88% 30.05 in 10.0 mi NE 4.6 mph - N/A   Scattered Clouds
3:40 AM 68.0 °F - 66.2 °F 94% 30.05 in 7.0 mi NNE 3.5 mph - N/A   Scattered Clouds
4:00 AM 68.0 °F - 66.2 °F 94% 30.06 in 7.0 mi Calm Calm - N/A   Scattered Clouds
4:20 AM 68.0 °F - 66.2 °F 94% 30.06 in 7.0 mi NNE 3.5 mph - N/A   Mostly Cloudy
4:40 AM 68.0 °F - 66.2 °F 94% 30.06 in 7.0 mi Calm Calm - N/A   Overcast
5:00 AM 68.0 °F - 66.2 °F 94% 30.06 in 7.0 mi NE 3.5 mph - N/A   Mostly Cloudy
5:20 AM 66.2 °F - 64.4 °F 94% 30.07 in 7.0 mi NE 5.8 mph - N/A   Mostly Cloudy
5:40 AM 66.2 °F - 64.4 °F 94% 30.07 in 7.0 mi NE 5.8 mph - N/A   Mostly Cloudy
6:00 AM 66.2 °F - 64.4 °F 94% 30.08 in 10.0 mi NE 4.6 mph - N/A   Mostly Cloudy
6:20 AM 66.2 °F - 62.6 °F 88% 30.08 in 10.0 mi NE 6.9 mph - N/A   Scattered Clouds
6:40 AM 66.2 °F - 62.6 °F 88% 30.09 in 10.0 mi NE 3.5 mph - N/A   Mostly Cloudy
7:00 AM 66.2 °F - 64.4 °F 94% 30.10 in 10.0 mi NE 5.8 mph - N/A   Overcast
7:20 AM 66.2 °F - 62.6 °F 88% 30.10 in 10.0 mi NE 6.9 mph - N/A   Overcast
7:40 AM 66.2 °F - 62.6 °F 88% 30.11 in 10.0 mi NE 6.9 mph - N/A   Mostly Cloudy
8:00 AM 66.2 °F - 62.6 °F 88% 30.12 in 10.0 mi NE 5.8 mph - N/A   Scattered Clouds
8:20 AM 66.2 °F - 60.8 °F 83% 30.12 in 10.0 mi NE 6.9 mph - N/A   Scattered Clouds
8:40 AM 68.0 °F - 60.8 °F 78% 30.13 in 10.0 mi NE 6.9 mph - N/A   Mostly Cloudy
9:00 AM 68.0 °F - 62.6 °F 83% 30.14 in 10.0 mi NE 4.6 mph - N/A   Mostly Cloudy
9:40 AM 69.8 °F - 62.6 °F 78% 30.15 in 10.0 mi ENE 5.8 mph - N/A   Scattered Clouds
10:00 AM 71.6 °F - 62.6 °F 73% 30.16 in 10.0 mi East 4.6 mph - N/A   Mostly Cloudy
10:20 AM 69.8 °F - 62.6 °F 78% 30.16 in 10.0 mi ENE 8.1 mph - N/A   Mostly Cloudy
10:40 AM 71.6 °F - 62.6 °F 73% 30.16 in 10.0 mi East 6.9 mph - N/A   Scattered Clouds
11:00 AM 73.4 °F - 62.6 °F 69% 30.16 in 10.0 mi East 3.5 mph - N/A   Mostly Cloudy
11:20 AM 73.4 °F - 62.6 °F 69% 30.16 in 10.0 mi NE 3.5 mph - N/A   Mostly Cloudy
11:40 AM 73.4 °F - 62.6 °F 69% 30.16 in 10.0 mi ENE 4.6 mph - N/A   Overcast
12:00 PM 75.2 °F - 62.6 °F 65% 30.16 in 10.0 mi NE 5.8 mph - N/A   Overcast
12:20 PM 73.4 °F - 62.6 °F 69% 30.16 in 10.0 mi NE 4.6 mph - N/A   Mostly Cloudy
12:40 PM 75.2 °F - 62.6 °F 65% 30.16 in 10.0 mi ENE 6.9 mph - N/A   Mostly Cloudy
1:00 PM 75.2 °F - 62.6 °F 65% 30.15 in 10.0 mi ENE 5.8 mph - N/A   Mostly Cloudy
1:20 PM 75.2 °F - 62.6 °F 65% 30.15 in 10.0 mi NE 5.8 mph - N/A   Scattered Clouds
1:40 PM 77.0 °F - 62.6 °F 61% 30.14 in 10.0 mi East 5.8 mph - N/A   Clear
2:00 PM 78.8 °F - 60.8 °F 54% 30.14 in 10.0 mi ENE 5.8 mph - N/A   Scattered Clouds
2:20 PM 78.8 °F - 60.8 °F 54% 30.13 in 10.0 mi East 3.5 mph - N/A   Scattered Clouds
2:40 PM 78.8 °F - 60.8 °F 54% 30.12 in 10.0 mi North 5.8 mph - N/A   Mostly Cloudy
3:00 PM 78.8 °F - 60.8 °F 54% 30.12 in 10.0 mi NE 6.9 mph - N/A   Scattered Clouds
3:20 PM 80.6 °F 81.1 °F 59.0 °F 48% 30.11 in 10.0 mi ENE 5.8 mph - N/A   Mostly Cloudy
3:40 PM 80.6 °F 80.8 °F 57.2 °F 45% 30.11 in 10.0 mi East 3.5 mph - N/A   Scattered Clouds
4:00 PM 80.6 °F 80.5 °F 55.4 °F 42% 30.11 in 10.0 mi North 6.9 mph - N/A   Scattered Clouds
4:20 PM 80.6 °F 80.3 °F 53.6 °F 39% 30.11 in 10.0 mi East 4.6 mph - N/A   Clear
4:40 PM 80.6 °F 80.5 °F 55.4 °F 42% 30.11 in 10.0 mi ENE 4.6 mph - N/A   Clear
5:00 PM 80.6 °F 80.3 °F 53.6 °F 39% 30.10 in 10.0 mi NE 8.1 mph - N/A   Clear
5:20 PM 80.6 °F - 51.8 °F 37% 30.10 in 10.0 mi ENE 5.8 mph - N/A   Clear
5:40 PM 80.6 °F 80.3 °F 53.6 °F 39% 30.10 in 10.0 mi ENE 3.5 mph - N/A   Clear
6:00 PM 78.8 °F - 53.6 °F 42% 30.11 in 10.0 mi East 4.6 mph - N/A   Clear
6:20 PM 78.8 °F - 55.4 °F 44% 30.11 in 10.0 mi ENE 4.6 mph - N/A   Clear
6:40 PM 77.0 °F - 55.4 °F 47% 30.11 in 10.0 mi NE 5.8 mph - N/A   Clear
7:00 PM 75.2 °F - 55.4 °F 50% 30.11 in 10.0 mi ENE 3.5 mph - N/A   Clear
7:20 PM 73.4 °F - 55.4 °F 53% 30.12 in 10.0 mi Calm Calm - N/A   Clear
7:40 PM 71.6 °F - 55.4 °F 57% 30.12 in 10.0 mi Calm Calm - N/A   Clear
8:00 PM 71.6 °F - 55.4 °F 57% 30.13 in 10.0 mi Calm Calm - N/A   Clear
8:20 PM 69.8 °F - 55.4 °F 60% 30.13 in 10.0 mi Calm Calm - N/A   Clear
8:40 PM 68.0 °F - 55.4 °F 64% 30.14 in 10.0 mi Calm Calm - N/A   Clear
9:00 PM 68.0 °F - 55.4 °F 64% 30.15 in 10.0 mi Calm Calm - N/A   Clear
9:20 PM 64.4 °F - 55.4 °F 73% 30.15 in 10.0 mi North 5.8 mph - N/A   Clear
9:40 PM 64.4 °F - 55.4 °F 73% 30.15 in 10.0 mi NNE 3.5 mph - N/A   Clear
10:00 PM 64.4 °F - 53.6 °F 68% 30.15 in 10.0 mi Calm Calm - N/A   Clear
10:20 PM 64.4 °F - 53.6 °F 68% 30.15 in 10.0 mi Calm Calm - N/A   Clear
10:40 PM 64.4 °F - 53.6 °F 68% 30.16 in 10.0 mi Calm Calm - N/A   Clear
11:00 PM 64.4 °F - 55.4 °F 73% 30.15 in 10.0 mi Calm Calm - N/A   Clear
11:20 PM 62.6 °F - 55.4 °F 77% 30.15 in 10.0 mi NNE 3.5 mph - N/A   Clear
11:40 PM 62.6 °F - 53.6 °F 72% 30.15 in 10.0 mi Calm Calm - N/A   Clear